Location: Berg
(47.2344°N, 9.5296°E)
Time: 22:55:27
(UTC+00:00)

PSLV R/B - Pass Details

Date: 24 January 2021
Orbit: 567 x 598 km, 98.2° (Epoch: 04 March)

Event Time Altitude Azimuth Distance (km) Brightness Sun altitude
Exits shadow 18:05:31 12° 14° (NNE) 1,810 6.2 -19.1°
Maximum altitude 18:09:26 89° 274° (W) 606 3.9 -19.7°
Drops below altitude 10° 18:13:38 10° 196° (SSW) 1,931 6.8 -20.5°
Sets 18:15:47 0° 196° (SSW) 2,826 7.7 -20.8°
